DW5435 Weather Reports


Display with metric or nautical units.
time (UTC)temp
F
wind
direction
speed
MPH
gust
MPH
rain 1hr
in
rain 24hr
in
rain mn
in
humidity
%
barometer
mb
20260508214516 70 0.0 0.0 0.00 0.00 0.00 72 1014.1
20260508213516 70 0.0 0.0 0.00 0.00 0.00 71 1014.0
20260508212516 71 0.0 0.0 0.00 0.00 0.00 70 1014.1
20260508211516 71 0.0 0.0 0.00 0.00 0.00 70 1014.1
20260508210516 71 0.0 0.0 0.00 0.00 0.00 69 1014.0
20260508205516 71 0.0 0.0 0.00 0.00 0.00 68 1014.0
20260508204516 71 0.0 0.0 0.00 0.00 0.00 69 1014.4
20260508203637 71 0.0 0.0 0.00 0.00 0.00 68 1014.3
20260508202516 71 0.0 0.0 0.00 0.00 0.00 67 1014.2
20260508201516 71 0.0 0.0 0.00 0.00 0.00 67 1014.2
20260508200516 71 0.0 0.0 0.00 0.00 0.00 67 1014.5
20260508195516 72 0.0 0.0 0.00 0.00 0.00 67 1014.3
20260508194516 71 0.0 0.0 0.00 0.00 0.00 66 1014.7
20260508193536 71 0.0 0.0 0.00 0.00 0.00 64 1014.9
20260508192516 71 0.0 0.0 0.00 0.00 0.00 64 1015.1
20260508191536 71 0.0 0.0 0.00 0.00 0.00 65 1015.1
20260508190516 71 0.0 0.0 0.00 0.00 0.00 65 1015.3
20260508185517 71 0.0 0.0 0.00 0.00 0.00 62 1015.3
20260508184536 71 0.0 0.0 0.00 0.00 0.00 62 1015.5
20260508183517 71 0.0 0.0 0.00 0.00 0.00 61 1015.7
20260508182537 71 0.0 0.0 0.00 0.00 0.00 65 1015.8
20260508181536 71 0.0 0.0 0.00 0.00 0.00 61 1015.8
20260508180516 71 0.0 0.0 0.00 0.00 0.00 64 1016.0
20260508175516 72 0.0 0.0 0.00 0.00 0.00 64 1016.1
20260508174516 72 0.0 0.0 0.00 0.00 0.00 64 1016.4
20260508173516 72 0.0 0.0 0.00 0.00 0.00 64 1016.6
20260508172516 71 0.0 0.0 0.00 0.00 0.00 64 1016.7
20260508171536 70 0.0 0.0 0.00 0.00 0.00 67 1016.8
20260508170516 70 0.0 0.0 0.00 0.00 0.00 70 1016.9
20260508165516 69 0.0 0.0 0.00 0.00 0.00 73 1017.1
20260508164516 69 0.0 0.0 0.00 0.00 0.00 73 1017.2
20260508163516 69 0.0 0.0 0.00 0.00 0.00 72 1017.5
20260508162516 68 0.0 0.0 0.00 0.00 0.00 73 1017.6
20260508161516 67 0.0 0.0 0.00 0.00 0.00 75 1017.7
20260508160516 67 0.0 0.0 0.00 0.00 0.00 77 1017.8
20260508155516 67 0.0 0.0 0.00 0.00 0.00 77 1018.1
20260508154515 66 0.0 0.0 0.00 0.00 0.00 79 1018.1
20260508153516 66 0.0 0.0 0.00 0.00 0.00 82 1018.2
20260508152516 65 0.0 0.0 0.00 0.00 0.00 82 1018.2
20260508151516 64 0.0 0.0 0.00 0.00 0.00 83 1018.0
20260508150516 63 0.0 0.0 0.00 0.00 0.00 85 1018.3
20260508145516 62 0.0 0.0 0.00 0.00 0.00 87 1018.2
20260508144516 61 0.0 0.0 0.00 0.00 0.00 89 1018.0
20260508143516 60 0.0 0.0 0.00 0.00 0.00 90 1018.0
20260508142516 59 0.0 0.0 0.00 0.00 0.00 92 1017.8
20260508141536 58 0.0 0.0 0.00 0.00 0.00 92 1017.9
20260508140515 57 0.0 0.0 0.00 0.00 0.00 93 1018.0
20260508135516 56 0.0 0.0 0.00 0.00 0.00 93 1018.1
20260508134516 56 0.0 0.0 0.00 0.00 0.00 93 1018.1
20260508133516 55 0.0 0.0 0.00 0.00 0.00 93 1018.3
20260508132515 55 0.0 0.0 0.00 0.00 0.00 93 1018.1
20260508131536 54 0.0 0.0 0.00 0.00 0.00 93 1017.9
20260508130536 53 0.0 0.0 0.00 0.00 0.00 93 1017.8
20260508125516 53 0.0 0.0 0.00 0.00 0.00 93 1017.8
20260508124516 53 0.0 0.0 0.00 0.00 0.00 93 1017.7
20260508123516 52 0.0 0.0 0.00 0.00 0.00 93 1017.9
20260508122516 52 0.0 0.0 0.00 0.00 0.00 93 1017.8
20260508121516 52 0.0 0.0 0.00 0.00 0.00 92 1017.5
20260508120516 52 0.0 0.0 0.00 0.00 0.00 92 1017.3
20260508115515 52 0.0 0.0 0.00 0.00 0.00 92 1016.9
20260508114516 52 0.0 0.0 0.00 0.00 0.00 92 1016.7
20260508113516 52 0.0 0.0 0.00 0.00 0.00 92 1016.6
20260508112516 52 0.0 0.0 0.00 0.00 0.00 92 1016.3
20260508111516 52 0.0 0.0 0.00 0.00 0.00 92 1016.1
20260508110536 52 0.0 0.0 0.00 0.00 0.00 92 1015.9
20260508105516 52 0.0 0.0 0.00 0.00 0.00 92 1015.8
20260508104535 52 0.0 0.0 0.00 0.00 0.00 92 1015.6
20260508103536 53 0.0 0.0 0.00 0.00 0.00 92 1015.6
20260508102516 53 0.0 0.0 0.00 0.00 0.00 92 1015.2
20260508101516 53 0.0 0.0 0.00 0.00 0.00 92 1015.2
20260508100556 53 0.0 0.0 0.00 0.00 0.00 92 1015.1
20260508095516 53 0.0 0.0 0.00 0.00 0.00 92 1015.0
20260508094516 54 0.0 0.0 0.00 0.00 0.00 92 1015.0
20260508093516 54 0.0 0.0 0.00 0.00 0.00 92 1014.9
20260508092516 54 0.0 0.0 0.00 0.00 0.00 92 1014.6
20260508091516 54 0.0 0.0 0.00 0.00 0.00 91 1014.7
20260508090515 54 0.0 0.0 0.00 0.00 0.00 91 1014.7
20260508085516 54 0.0 0.0 0.00 0.00 0.00 92 1014.5
20260508084516 54 0.0 0.0 0.00 0.00 0.00 91 1014.4
20260508083516 54 0.0 0.0 0.00 0.00 0.00 91 1014.4
20260508082516 54 0.0 0.0 0.00 0.00 0.00 91 1014.3
20260508081516 54 0.0 0.0 0.00 0.00 0.00 91 1014.2
20260508080516 55 0.0 0.0 0.00 0.00 0.00 91 1014.4
20260508075516 55 0.0 0.0 0.00 0.00 0.00 91 1014.4
20260508074535 55 0.0 0.0 0.00 0.00 0.00 91 1014.2
20260508073515 55 0.0 0.0 0.00 0.00 0.00 91 1014.4
20260508072516 55 0.0 0.0 0.00 0.00 0.00 91 1014.6
20260508071536 55 0.0 0.0 0.00 0.00 0.00 91 1014.7
20260508070536 56 0.0 0.0 0.00 0.00 0.00 91 1014.4
20260508070016 56 0.0 0.0 0.00 0.00 0.00 91 1014.3
20260508065036 56 0.0 0.0 0.00 0.00 0.00 91 1014.4
20260508064015 56 0.0 0.0 0.00 0.00 0.00 90 1014.4
20260508063036 56 0.0 0.0 0.00 0.00 0.00 90 1014.7
20260508062016 56 0.0 0.0 0.00 0.00 0.00 90 1014.6
20260508061016 56 0.0 0.0 0.00 0.00 0.00 90 1014.6
20260508060016 57 0.0 0.0 0.00 0.00 0.00 90 1014.8
20260508055016 57 0.0 0.0 0.00 0.00 0.00 90 1014.6
20260508054036 57 0.0 0.0 0.00 0.00 0.00 90 1014.5
20260508053036 57 0.0 0.0 0.00 0.00 0.00 90 1014.8
20260508052016 57 0.0 0.0 0.00 0.00 0.00 89 1014.9
20260508051016 58 0.0 0.0 0.00 0.00 0.00 89 1014.9
20260508050015 58 0.0 0.0 0.00 0.00 0.00 89 1014.9
20260508045035 58 0.0 0.0 0.00 0.00 0.00 89 1014.6
20260508044015 58 0.0 0.0 0.00 0.00 0.00 89 1014.5
20260508043036 59 0.0 0.0 0.00 0.00 0.00 89 1014.6
20260508042016 59 0.0 0.0 0.00 0.00 0.00 89 1014.6
20260508041015 59 0.0 0.0 0.00 0.00 0.00 88 1014.4
20260508040016 59 0.0 0.0 0.00 0.00 0.00 88 1014.7
20260508035016 59 0.0 0.0 0.00 0.00 0.00 88 1014.5
20260508034017 60 0.0 0.0 0.00 0.00 0.00 87 1014.4
20260508033037 60 0.0 0.0 0.00 0.00 0.00 87 1014.3
20260508032017 60 0.0 0.0 0.00 0.00 0.00 87 1014.5
20260508031016 60 0.0 0.0 0.00 0.00 0.00 87 1014.3
20260508030017 61 0.0 0.0 0.00 0.00 0.00 87 1014.3
20260508025017 61 0.0 0.0 0.00 0.00 0.00 87 1014.4
20260508024017 61 0.0 0.0 0.00 0.00 0.00 87 1014.3
20260508023016 62 0.0 0.0 0.00 0.00 0.00 86 1014.2
20260508022017 62 0.0 0.0 0.00 0.00 0.00 86 1014.1
20260508021017 62 0.0 0.0 0.00 0.00 0.00 85 1014.0
20260508020037 63 0.0 0.0 0.00 0.00 0.00 83 1013.8
20260508015016 63 0.0 0.0 0.00 0.00 0.00 82 1013.8
20260508014016 63 0.0 0.0 0.00 0.00 0.00 82 1013.8
20260508013037 64 0.0 0.0 0.00 0.00 0.00 81 1013.8
20260508012017 64 0.0 0.0 0.00 0.00 0.00 81 1013.6
20260508011016 65 0.0 0.0 0.00 0.00 0.00 81 1013.5
20260508010017 65 0.0 0.0 0.00 0.00 0.00 81 1013.4
20260508005016 65 0.0 0.0 0.00 0.00 0.00 81 1013.3
20260508004017 66 0.0 0.0 0.00 0.00 0.00 80 1013.1
20260508003016 66 0.0 0.0 0.00 0.00 0.00 80 1013.0
20260508002016 66 0.0 0.0 0.00 0.00 0.00 80 1012.8
20260508001017 67 0.0 0.0 0.00 0.00 0.00 80 1012.8
20260508000016 67 0.0 0.0 0.00 0.00 0.00 82 1012.8
20260507235016 67 0.0 0.0 0.00 0.00 0.00 84 1012.7
20260507234016 68 0.0 0.0 0.00 0.00 0.00 83 1012.5
20260507233036 68 0.0 0.0 0.00 0.00 0.00 80 1012.3
20260507232016 68 0.0 0.0 0.00 0.00 0.00 81 1012.3
20260507231036 68 0.0 0.0 0.00 0.00 0.00 83 1012.2
20260507230057 68 0.0 0.0 0.00 0.00 0.00 82 1012.2
20260507225016 68 0.0 0.0 0.00 0.00 0.00 82 1012.0
20260507224017 68 0.0 0.0 0.00 0.00 0.00 85 1011.8
20260507223017 69 0.0 0.0 0.00 0.00 0.00 87 1011.8
20260507222016 69 0.0 0.0 0.00 0.00 0.00 85 1011.8
20260507221016 69 0.0 0.0 0.00 0.00 0.00 86 1011.5
20260507220017 69 0.0 0.0 0.00 0.00 0.00 85 1011.4
20260507215017 69 0.0 0.0 0.00 0.00 0.00 84 1011.4